Zurück zum Katalog

TITAN 3C TRANSTAGE DEB

AktivVLEO
NORAD 3462·DEBRIS·🇺🇸 United States

Gestartet Oct 15, 1965 von Cape Canaveral Space Force Station

Loading…

Nächste Überflüge (nächste 24 Stunden)

TLE

AktuellSource: Space-Track

Epoche: Sep 14, 2026, 13:05 UTC

1 03462U 65082PT  26257.54515494  .00007457  00000-0  23084-3 0  9998
2 03462  32.0291  90.2183 0010223 272.8982  87.0512 15.32121868277223

Verfolge TITAN 3C TRANSTAGE DEB in Echtzeit mit AllMySat

Download on the App Store